Location: Unspecified
(37.8212°N, 0.0000°E)
Time: 14:10:44
(UTC+00:00)

Burner II No. 7 - Visible Passes

Search period start: 04 April 2026 00:00
Search period end: 14 April 2026 00:00
Orbit: 755 x 813 km, 98.3° (Epoch: 29 March)

Date Brightness Start Highest point End Pass type
(mag) Time Alt. Az. Time Alt. Az. Time Alt. Az.
4 Apr 7.8 05:02:47 10° SE 05:07:33 39° ENE 05:12:26 10° N visible
4 Apr 7.0 18:55:21 10° N 19:00:33 55° WNW 19:05:41 10° SSW visible
5 Apr 9.0 04:32:52 10° ESE 04:36:39 21° ENE 04:40:27 10° NNE visible
5 Apr 9.4 20:05:35 10° NNW 20:08:05 13° WNW 20:10:33 10° W visible
6 Apr 9.7 04:04:50 10° ENE 04:05:52 11° ENE 04:06:54 10° NE visible
6 Apr 8.6 19:32:58 10° NNW 19:37:15 25° WNW 19:41:30 10° WSW visible
7 Apr 7.3 19:01:11 10° N 19:06:17 48° WNW 19:11:19 10° SW visible
8 Apr 8.8 04:38:16 10° ESE 04:42:20 23° ENE 04:46:27 10° NNE visible
8 Apr 9.6 20:11:58 10° NW 20:13:45 12° WNW 20:15:32 10° W visible
9 Apr 9.5 04:09:30 10° E 04:11:32 12° ENE 04:13:34 10° NE visible
9 Apr 8.8 19:38:56 10° NNW 19:42:57 22° WNW 19:46:57 10° WSW visible
10 Apr 7.6 19:07:02 10° N 19:12:01 42° WNW 19:16:55 10° SW visible
11 Apr 8.6 04:43:43 10° ESE 04:48:02 26° ENE 04:52:24 10° NNE visible
11 Apr 9.8 20:19:10 10° WNW 20:19:24 10° WNW 20:19:39 10° WNW visible
12 Apr 9.4 04:14:33 10° E 04:17:12 14° ENE 04:19:52 10° NNE visible
12 Apr 9.0 19:44:55 10° NNW 19:48:39 20° WNW 19:52:20 10° WSW visible
13 Apr 7.9 19:12:54 10° N 19:17:44 37° WNW 19:22:28 10° SW visible
